Wind_Speed
16 15 14 14 14 14 14 14 13 12 12 12 11 13 15 16 15 15 15 14 14 15 17 16 14 14 15 16 17 18 19 21 22 22 24 26 26 26 27 29 30 30 31 31 32 33 33 34 34 34 35 35 36 37 37 38 39 40 42 43 44 45 46 46 46 46 47 49 51 55 58 61 63 64 66 68 70 70 71 74 78 80 81 83 86 90 90
15 14 14 14 14 13 13 13 13 12 12 12 12 13 15 15 15 15 14 13 13 15 16 14 14 15 15 16 18 19 20 22 23 24 25 27 28 28 29 31 31 31 32 32 32 33 33 34 34 34 35 36 36 37 37 38 39 40 42 43 45 46 48 49 50 51 53 54 55 58 61 63 65 67 68 69 69 70 72 75 78 79 81 83 87 91 92
14 14 13 12 12 12 12 12 12 11 11 12 13 14 14 14 14 13 12 12 13 15 15 14 14 14 15 16 18 19 22 23 25 26 27 28 29 31 31 32 32 32 32 33 33 34 34 34 34 35 35 36 36 36 37 38 39 41 42 43 45 47 49 51 53 54 58 61 61 63 65 65 66 67 69 70 70 72 75 77 79 81 82 84 87 93 96
14 13 13 12 11 11 11 10 10 11 11 12 14 13 13 14 14 11 10 11 13 14 14 13 14 14 14 16 18 20 23 25 26 27 29 30 31 32 33 33 33 32 33 33 33 34 34 34 34 34 35 35 36 36 37 38 40 41 42 43 45 47 49 51 53 53 56 60 61 63 65 66 67 68 69 71 73 75 78 79 80 83 86 87 89 94 99
14 13 12 12 10 10 9 9 10 10 11 13 14 13 12 14 13 10 9 10 12 13 12 12 13 14 15 17 20 22 24 26 28 29 30 31 32 33 34 34 33 33 33 33 33 33 33 34 33 34 34 35 36 36 37 39 40 41 42 44 45 47 49 52 53 53 55 59 61 62 65 67 68 69 70 72 75 77 79 80 82 85 89 91 92 95 100
13 12 11 10 9 9 9 9 10 11 12 13 14 13 13 14 12 9 8 8 10 12 12 12 13 14 16 18 21 24 26 28 30 31 32 33 34 35 35 34 33 33 33 33 33 33 33 33 33 34 35 35 36 37 38 39 41 42 43 44 46 48 49 52 54 54 56 60 62 63 66 68 69 70 71 74 77 79 80 82 84 86 89 92 95 98 100
12 11 10 9 9 9 9 9 10 12 13 14 13 13 13 13 11 9 7 7 9 11 12 13 14 15 17 20 23 26 28 30 31 33 34 35 36 36 35 34 33 33 33 33 33 33 33 33 33 34 35 36 36 38 39 40 41 43 44 45 46 49 51 53 56 56 57 60 63 64 67 69 70 71 73 76 79 80 82 84 86 87 89 93 96 98 100
11 10 10 10 10 10 10 11 12 13 14 14 14 14 14 13 11 8 6 6 8 11 13 14 16 17 19 22 25 27 29 32 33 34 36 37 37 36 35 34 33 33 33 34 34 34 34 34 34 35 36 36 37 39 40 42 42 43 44 46 48 50 53 55 57 58 58 61 63 65 67 70 71 73 76 78 79 80 83 86 88 89 91 95 97 99 101
10 10 11 12 12 12 13 13 14 15 15 16 16 15 15 14 11 8 7 7 9 12 14 16 17 19 21 24 27 29 31 33 35 36 37 38 37 35 34 34 34 33 33 34 34 34 35 35 35 36 36 37 38 40 41 42 43 44 45 47 50 53 55 56 58 60 60 62 64 66 68 70 72 75 78 79 81 83 85 88 89 90 93 97 99 101 103
10 11 12 13 14 14 14 15 16 17 18 18 18 17 17 15 12 9 7 8 11 14 16 18 19 21 24 26 28 30 32 34 35 36 37 36 35 35 34 34 34 33 34 34 34 34 35 35 36 37 37 38 39 40 42 43 44 46 47 50 52 55 57 58 60 62 63 64 66 67 69 71 74 77 80 82 84 86 87 88 89 89 92 97 100 102 103
11 12 13 14 15 16 17 18 19 21 22 22 21 20 20 17 14 11 10 11 14 16 18 20 21 23 25 27 29 31 32 33 35 35 35 35 35 35 35 34 34 34 34 34 34 35 36 36 37 37 37 39 40 41 42 44 46 48 50 52 54 57 59 60 62 64 66 67 68 69 70 73 76 79 82 85 87 88 89 90 89 89 91 95 98 100 100
11 12 14 15 17 18 20 21 22 23 24 23 23 23 22 20 17 15 14 15 17 18 19 21 23 25 26 28 29 30 31 32 33 33 33 34 34 35 34 34 34 34 34 35 35 36 36 36 37 37 38 39 40 41 43 45 48 50 52 54 56 57 59 61 63 65 67 69 71 72 73 74 77 81 84 86 87 88 90 90 88 89 93 96 98 100 99
11 13 15 16 18 20 21 22 22 23 23 24 24 24 22 21 20 19 18 18 19 19 21 22 24 25 26 27 28 29 30 30 31 32 33 34 34 34 34 34 34 34 35 36 36 36 37 37 37 37 38 39 40 42 44 46 49 51 53 55 57 59 61 63 64 67 68 70 73 74 75 75 79 83 85 88 89 90 92 93 90 91 96 98 100 101 100
12 14 15 17 18 20 21 21 22 22 23 24 24 23 22 22 22 22 21 20 21 21 22 23 24 25 26 27 28 28 29 30 31 32 33 34 34 35 35 35 34 35 36 37 37 37 37 38 38 38 38 39 41 43 46 48 50 52 54 56 58 60 62 64 66 67 69 72 73 73 74 77 82 85 86 89 91 92 95 97 95 94 97 99 100 101 101
12 13 15 16 18 19 20 21 22 23 24 25 25 24 23 24 24 24 24 23 24 24 24 25 26 27 27 28 28 29 30 31 31 32 33 34 35 35 35 35 35 35 37 37 38 38 38 38 38 39 40 41 43 45 47 49 51 54 56 58 60 62 64 65 66 67 69 72 74 76 78 81 85 87 88 89 91 92 94 97 96 95 96 99 100 102 102
11 13 14 16 17 19 20 21 22 23 24 25 26 26 26 26 26 26 26 27 28 28 27 28 29 29 29 30 30 31 31 32 33 34 35 35 36 36 36 35 35 36 37 38 39 39 39 39 39 40 42 43 45 46 48 50 52 55 57 59 61 63 64 64 66 67 68 71 74 78 81 83 87 89 89 90 92 94 96 97 96 94 95 99 101 102 101
9 12 13 15 16 18 19 21 22 23 24 26 28 28 28 28 27 28 29 29 30 30 30 30 31 31 31 32 32 33 33 33 34 36 36 36 37 37 36 36 36 37 38 39 39 40 40 40 41 42 43 44 46 47 50 52 54 56 57 59 60 62 63 64 66 67 69 71 74 76 79 82 86 90 91 93 95 96 98 99 99 97 98 100 102 101 99
8 10 12 14 15 17 19 20 22 24 25 27 28 29 30 29 29 29 30 31 31 32 31 31 33 34 34 35 35 35 35 36 36 37 38 38 38 38 38 37 38 38 39 40 40 41 41 42 42 43 44 45 47 49 51 54 55 57 58 60 60 62 64 65 66 67 69 72 75 76 79 82 86 89 92 95 96 96 98 100 101 101 101 102 103 100 96
6 8 10 12 14 16 18 20 22 24 25 27 28 29 30 30 29 29 31 32 33 33 33 34 36 38 38 39 38 38 38 38 39 40 40 40 40 40 39 39 39 40 40 40 41 42 42 42 43 44 45 47 49 51 52 54 56 57 59 61 62 63 65 65 66 68 70 73 76 78 80 82 85 89 92 95 98 99 99 100 101 102 103 102 103 101 95
5 7 9 11 13 15 17 19 21 23 24 25 27 27 29 30 30 30 32 33 33 34 35 37 39 40 41 42 42 41 41 41 42 43 42 42 42 42 42 41 41 41 41 42 42 42 43 44 44 45 47 48 50 52 53 54 56 58 59 62 63 65 66 66 68 71 73 75 79 82 83 85 88 93 95 96 98 100 101 101 101 102 103 102 103 101 96
5 6 8 10 12 14 16 17 19 21 22 24 25 26 28 29 30 31 32 33 34 36 38 39 40 42 43 45 45 45 44 44 44 45 45 45 45 45 45 44 44 43 43 43 43 43 44 45 46 46 48 49 50 52 53 54 56 58 59 61 63 65 67 68 70 74 77 79 81 84 86 88 91 96 98 98 98 99 100 100 101 101 102 103 102 101 97
6 6 7 9 11 13 15 16 18 19 21 23 24 26 26 27 28 29 30 32 34 37 39 40 42 43 45 46 47 47 47 47 47 47 48 48 48 48 48 47 46 45 45 44 44 45 46 46 47 47 48 49 50 51 53 54 56 58 59 61 63 65 68 69 71 73 76 79 82 84 87 89 91 94 96 96 97 98 97 97 99 100 102 103 102 100 98
7 7 7 9 11 12 14 16 17 19 21 22 24 25 25 26 27 28 30 32 35 37 39 41 43 44 45 47 48 49 50 50 49 49 49 50 51 51 50 49 48 46 45 45 45 46 47 47 47 47 47 49 50 51 53 55 56 58 59 61 64 66 69 71 72 73 74 76 79 82 85 87 89 91 94 95 96 97 97 96 98 99 100 102 102 100 97
8 8 8 9 11 12 14 16 17 19 20 22 23 24 25 26 27 29 31 33 36 37 39 42 44 45 46 47 49 50 51 51 51 51 50 51 53 53 52 51 49 47 46 46 46 47 47 47 47 47 48 49 50 51 53 55 56 58 60 61 64 67 70 72 73 74 75 76 77 80 83 86 89 93 95 96 96 96 95 95 96 97 98 100 101 100 97
10 10 10 10 12 13 14 16 17 19 21 22 23 24 26 27 29 31 32 34 35 37 39 42 44 45 46 48 49 51 52 53 52 52 52 52 53 54 54 52 50 48 47 46 46 47 48 48 48 48 48 50 51 52 54 56 57 59 60 62 65 67 70 73 73 74 76 78 78 80 80 82 85 90 93 94 94 94 93 92 93 95 97 99 100 100 97
12 12 12 12 13 14 15 16 18 20 21 22 24 25 27 29 31 33 33 34 35 37 40 42 43 45 46 48 49 51 52 53 54 54 53 53 53 55 55 54 51 49 48 47 47 48 48 48 49 49 49 50 51 53 55 57 58 59 61 63 66 68 70 72 74 75 77 79 80 81 80 80 82 86 91 93 95 95 94 93 93 95 97 99 100 99 97
13 13 14 14 14 15 16 17 19 20 22 23 25 26 28 31 33 34 34 35 36 38 40 42 43 45 46 48 49 51 53 54 54 54 54 54 54 54 55 55 53 51 49 48 48 49 49 49 50 50 50 51 52 53 55 57 58 60 61 63 66 68 70 72 74 76 79 82 84 85 87 87 89 92 95 96 97 97 96 95 96 97 99 100 101 100 97
14 14 15 15 16 16 17 18 20 21 23 24 26 28 30 32 34 36 36 36 37 39 41 42 43 45 46 48 50 51 53 54 55 55 55 55 54 54 55 55 54 52 50 49 49 49 50 50 51 51 52 53 54 54 56 57 59 61 63 65 67 69 71 73 75 77 81 84 86 88 90 92 94 96 99 99 100 100 98 97 98 99 100 101 101 100 98
15 15 16 16 17 18 18 20 21 23 24 26 27 29 31 34 36 37 37 37 38 39 41 42 44 46 47 48 50 51 53 55 55 55 55 55 54 54 55 55 55 53 52 50 50 50 51 51 52 52 53 54 55 55 56 58 60 63 65 67 69 70 72 74 76 78 80 83 85 88 91 93 95 98 100 101 101 101 99 98 99 100 100 100 100 99 97
16 16 17 17 18 18 19 21 22 24 26 27 29 31 33 35 37 38 38 38 39 40 41 43 45 46 48 49 50 52 53 55 55 55 56 55 55 55 55 55 55 55 53 51 51 51 51 52 52 53 54 55 55 56 58 60 62 64 67 69 69 71 73 75 77 79 81 83 85 87 90 93 95 97 99 100 100 100 99 98 99 100 100 99 99 98 95
17 17 17 18 19 19 20 22 24 25 27 29 31 33 34 36 38 39 39 39 39 40 42 43 45 47 48 50 51 52 54 55 55 56 56 56 55 55 55 54 55 55 54 53 52 52 52 52 53 54 55 56 56 57 59 61 63 65 68 70 71 72 73 75 77 80 82 85 86 87 89 92 95 97 99 100 101 101 100 99 99 99 99 99 98 97 94
18 18 19 19 20 20 21 23 25 27 28 30 32 34 36 37 39 39 39 39 40 41 42 44 45 48 50 51 51 53 54 55 56 56 56 56 56 56 55 54 55 56 55 54 54 53 53 53 54 54 55 56 58 59 60 62 64 66 68 70 72 73 75 76 77 79 82 86 89 90 92 94 97 100 102 103 103 103 101 100 100 100 100 99 98 97 94
19 19 20 20 21 21 22 24 26 27 29 31 33 34 36 38 39 40 39 39 40 41 42 44 46 49 50 51 52 53 55 56 56 56 56 56 57 57 56 55 55 56 56 55 55 55 55 54 55 55 56 57 59 61 62 63 65 67 69 70 72 74 76 78 79 80 82 86 90 93 95 97 99 102 103 104 103 103 102 101 101 101 101 100 99 98 95
20 20 20 21 21 22 23 24 26 28 29 31 33 35 37 38 39 39 39 39 40 41 43 45 48 49 51 51 52 53 55 56 56 56 56 57 58 58 57 55 55 56 57 56 56 56 56 56 56 56 57 59 60 61 62 64 66 68 69 71 72 74 76 77 79 80 83 86 88 90 93 95 97 99 102 103 103 103 102 100 100 101 102 101 100 100 97
20 20 21 21 21 22 23 25 26 28 30 32 34 36 37 37 38 38 38 39 41 42 44 46 49 50 51 51 52 54 55 56 55 55 56 57 58 58 57 56 55 56 57 57 58 57 57 57 57 57 58 60 61 62 63 65 67 68 70 71 72 74 76 77 77 79 82 84 87 88 90 93 94 97 99 101 102 102 101 100 100 101 102 101 101 101 98
19 19 20 20 21 22 23 25 27 29 31 33 34 35 36 36 36 37 38 39 41 43 45 47 49 50 50 51 53 54 56 56 55 55 56 57 58 59 58 57 56 56 57 58 59 58 58 58 59 59 60 61 62 63 65 66 67 69 70 72 74 75 76 77 79 80 82 84 87 88 90 91 93 94 96 100 102 102 102 101 101 103 103 102 102 102 99
18 19 19 20 21 22 23 25 27 29 31 33 33 34 34 35 36 37 38 40 42 44 46 47 48 49 50 52 53 55 56 56 55 56 56 57 59 60 59 58 57 57 57 59 59 59 59 60 60 60 61 62 64 65 66 67 68 70 71 73 74 75 76 78 80 81 83 84 87 89 91 92 93 95 98 101 103 104 103 103 104 104 104 103 102 102 99
17 18 18 19 20 22 24 25 27 29 30 31 32 33 33 35 36 37 39 41 43 44 45 47 48 49 50 52 54 55 56 55 55 56 57 57 59 60 60 58 58 58 58 59 60 60 61 62 61 61 62 64 65 66 67 67 69 71 72 74 75 76 76 79 81 84 86 88 91 93 95 97 98 100 102 104 105 105 105 104 105 105 103 101 101 101 99
17 17 18 19 20 22 23 25 26 28 29 30 31 32 33 35 36 38 39 41 42 43 44 46 47 49 52 54 55 56 56 55 55 56 57 58 59 60 60 59 59 58 59 60 60 61 62 63 62 63 64 65 66 67 68 68 69 71 73 74 75 76 78 80 82 85 88 91 94 97 100 102 103 105 106 107 107 106 105 104 104 104 103 100 100 100 99
16 17 18 19 20 22 23 25 26 28 29 30 31 32 34 35 37 38 39 41 42 43 44 46 49 51 53 54 56 56 55 55 56 57 57 58 60 60 60 60 59 59 60 60 61 62 63 63 63 64 64 66 67 68 68 69 70 72 73 74 75 76 78 81 83 85 88 91 94 97 99 102 104 105 107 108 108 107 105 105 104 104 103 100 99 99 98
17 18 19 20 21 22 23 25 27 28 30 31 32 33 35 36 37 38 39 41 42 44 46 48 50 52 54 55 55 55 55 55 56 57 58 59 60 60 61 61 60 60 60 61 62 63 64 64 64 64 65 66 67 68 69 70 71 72 73 74 75 77 79 81 83 85 87 90 93 96 98 100 102 104 107 108 108 107 106 105 105 104 102 100 98 98 97
18 19 19 20 22 23 24 26 27 29 30 31 33 34 35 36 38 39 40 42 44 46 47 49 51 53 54 55 55 55 55 56 57 58 59 60 61 61 61 61 61 61 61 61 63 64 64 64 64 65 65 66 68 69 70 71 72 72 73 74 75 77 78 80 82 84 87 90 93 95 98 100 102 104 106 108 108 107 106 105 105 104 101 99 97 97 95
19 19 20 21 22 24 25 27 28 30 31 32 33 35 36 37 39 40 42 44 46 48 49 51 52 54 55 55 55 55 56 57 58 59 60 61 61 61 61 61 61 61 61 62 64 65 65 64 65 66 66 67 69 70 71 72 72 73 73 74 75 77 78 80 82 84 87 90 93 95 98 99 101 103 106 107 107 106 105 104 104 103 101 99 97 95 94
20 20 21 22 24 25 26 28 29 30 32 33 35 36 38 39 41 42 44 46 48 49 51 52 53 54 55 55 55 56 57 57 58 60 61 62 62 62 62 62 62 62 62 63 64 65 65 65 65 66 67 68 70 71 72 72 73 73 74 75 76 77 78 80 82 84 86 89 92 94 96 98 100 102 105 106 107 106 105 105 104 103 101 99 97 95 93
21 22 23 24 25 26 28 29 31 32 33 35 36 38 39 41 43 45 46 48 49 50 51 52 53 53 54 55 56 57 58 58 59 61 62 63 62 62 63 63 63 63 63 63 64 65 65 65 66 67 68 69 71 72 72 73 74 74 75 75 76 77 78 80 82 84 87 90 92 95 96 98 99 102 104 106 107 106 105 105 105 104 102 100 97 95 93
22 23 24 26 27 28 29 31 32 33 35 37 38 40 41 43 45 47 48 49 49 50 51 52 52 53 54 55 57 58 59 59 60 62 63 63 62 62 63 63 63 63 63 64 65 65 66 66 67 68 69 71 72 72 73 73 74 75 76 76 77 77 78 80 83 85 88 91 93 95 97 98 100 102 104 106 106 106 105 105 105 105 103 101 98 96 93
23 25 26 27 29 30 31 32 34 35 37 39 40 41 43 45 46 47 48 49 49 50 50 51 52 53 54 56 58 59 59 59 61 63 64 64 63 63 64 64 63 64 64 64 65 66 67 68 68 69 71 72 73 73 73 74 75 76 76 77 77 78 80 82 84 86 89 92 94 95 97 98 100 102 104 105 106 106 105 105 105 104 103 101 98 96 93
24 25 27 28 30 31 32 34 35 37 38 40 41 43 44 45 47 48 48 48 48 49 50 51 52 53 55 56 58 59 59 60 62 63 64 64 64 64 64 64 64 64 64 65 66 67 68 69 70 71 72 73 74 74 74 75 76 77 77 77 78 79 81 82 84 87 90 93 95 96 97 98 100 102 104 105 105 105 105 105 105 104 102 101 98 95 92
25 26 28 29 30 31 33 34 36 37 39 40 41 43 44 45 46 47 47 47 48 48 49 50 52 54 55 57 58 59 59 61 62 63 64 64 65 65 65 64 64 64 64 65 66 67 69 70 71 72 73 75 75 75 75 76 77 78 78 78 79 81 82 84 85 88 91 93 95 97 98 100 101 103 105 105 104 105 105 105 105 104 102 101 99 95 91
25 27 28 29 30 31 33 34 36 37 39 40 41 42 43 45 45 46 46 47 47 48 49 51 52 54 55 57 58 59 60 62 63 63 64 65 65 65 65 65 65 65 65 65 66 68 70 71 73 74 75 76 76 76 76 77 78 79 79 80 81 82 83 85 87 89 92 94 96 98 99 100 102 104 105 105 105 104 104 104 105 104 102 101 99 95 90
26 27 28 29 30 32 33 34 36 37 38 39 40 42 43 44 45 45 46 46 47 48 50 52 53 54 56 57 58 59 61 62 62 63 64 65 65 65 65 65 65 65 65 66 67 69 71 73 74 75 76 77 77 77 77 77 78 79 80 81 82 83 84 86 88 90 92 94 96 98 99 101 103 104 105 105 104 104 104 103 103 103 102 100 98 95 89
26 27 28 29 31 32 34 35 36 37 38 38 40 41 42 43 45 45 46 47 48 49 51 52 54 55 57 58 59 60 61 62 63 63 64 65 66 65 65 65 65 65 65 66 67 69 71 74 76 77 77 78 78 78 78 78 79 80 81 82 83 84 86 87 89 91 93 95 96 98 99 101 103 104 104 104 104 104 104 104 104 103 102 101 99 94 88
Wind_Direction
68 62 56 53 54 58 60 62 64 69 70 66 62 60 55 47 39 34 38 50 59 58 57 56 54 50 45 42 40 36 31 25 18 12 6 1 356 351 348 345 342 340 338 336 335 333 332 332 332 332 334 335 336 336 336 337 337 336 337 337 336 335 334 334 333 333 332 335 337 337 338 339 339 339 339 338 338 336 335 332 332 332 332 330 328 327 329
62 54 50 52 57 61 63 65 68 70 67 61 55 51 45 40 36 38 48 59 60 57 55 50 46 46 41 38 36 28 20 13 7 2 358 354 351 347 344 342 339 338 336 335 333 332 332 332 332 333 334 335 336 336 336 336 336 337 337 337 337 335 334 334 334 334 333 335 338 339 340 341 341 340 339 339 337 335 334 332 331 331 331 331 329 327 329
54 47 46 51 59 66 68 68 70 68 62 55 47 41 38 36 36 43 57 63 57 53 51 43 41 41 36 32 26 17 10 5 359 355 353 351 349 346 343 341 339 337 335 334 333 332 332 332 332 333 335 335 336 336 336 336 336 337 337 337 336 335 334 335 339 341 340 340 343 343 342 342 341 340 339 338 336 335 334 333 332 331 331 331 330 328 329
46 42 42 46 55 64 70 71 68 61 55 48 37 30 33 35 35 46 62 61 54 49 45 38 35 33 28 22 15 7 2 358 355 353 351 350 348 346 343 341 339 337 335 334 332 332 332 332 332 334 335 335 335 335 336 336 337 337 336 336 335 334 334 335 340 345 343 342 344 343 340 341 341 340 339 338 337 336 336 334 333 332 331 333 332 330 331
40 39 43 47 53 59 63 65 59 49 44 39 27 22 30 32 33 47 61 55 49 44 39 32 27 21 15 9 5 2 357 354 353 351 350 349 348 345 343 341 338 337 335 332 331 331 332 332 333 334 334 335 335 335 336 336 337 336 335 335 334 334 335 335 339 343 342 341 342 341 340 340 340 340 339 338 338 337 336 335 333 333 333 334 334 333 333
37 40 44 48 51 54 55 53 46 38 32 26 18 20 28 27 27 44 55 47 41 36 30 24 15 9 4 360 358 356 354 352 351 350 349 348 346 344 342 339 338 336 334 332 331 331 332 333 333 334 334 335 335 335 336 336 336 335 334 334 333 334 335 336 338 342 342 340 341 340 339 340 340 340 339 339 339 338 337 335 334 334 335 335 335 336 335
37 41 43 45 46 46 45 41 34 28 22 16 15 21 25 21 24 41 50 40 30 24 18 12 4 358 355 354 353 352 351 350 349 348 346 345 343 341 340 338 337 335 333 331 331 330 331 332 332 333 334 335 335 336 336 336 335 334 333 333 333 334 336 336 338 341 341 340 340 340 340 340 340 340 340 341 341 339 336 335 334 335 336 336 336 337 336
37 41 41 42 41 39 37 32 26 22 17 15 18 22 21 19 25 39 42 28 16 10 7 2 356 351 349 350 350 348 348 347 346 345 343 342 340 339 339 337 336 334 332 331 330 330 331 332 333 333 334 335 336 336 336 336 335 334 333 333 334 335 337 337 338 340 341 340 340 340 340 340 340 340 341 342 341 339 337 336 337 338 337 337 337 337 337
38 42 41 40 37 35 33 30 25 21 20 21 23 23 21 20 25 33 30 16 4 1 359 355 351 348 347 348 347 346 345 345 344 342 340 339 339 339 338 337 335 334 332 331 331 331 332 333 334 334 335 336 337 337 336 335 334 334 333 334 336 337 338 338 338 339 340 340 340 341 341 340 340 340 341 342 340 340 340 339 339 339 338 337 338 338 337
40 41 39 37 35 34 32 29 26 24 25 26 26 27 25 24 26 26 17 3 358 357 355 351 349 348 346 346 345 344 344 343 341 340 339 339 340 339 338 336 335 333 332 331 331 331 332 334 335 335 336 337 337 337 336 335 334 333 334 336 337 338 338 338 339 339 340 340 341 342 341 340 340 341 342 342 341 342 343 341 340 340 338 337 338 338 337
42 41 39 37 35 34 31 28 25 25 26 26 26 28 26 24 24 20 8 358 356 356 353 350 349 348 346 345 344 343 342 341 340 340 340 341 341 339 337 336 334 333 332 331 331 333 334 335 335 337 338 338 337 337 335 334 334 334 336 338 338 338 338 339 339 339 340 340 341 341 341 341 342 343 343 342 341 342 343 343 342 340 338 337 337 337 337
43 41 39 37 36 33 30 28 25 26 27 24 25 27 25 22 20 15 8 4 360 355 353 351 349 348 347 345 343 342 342 342 342 343 344 343 341 339 337 335 334 333 332 332 333 334 334 335 336 338 338 337 337 336 335 335 335 337 338 338 339 338 338 339 339 339 340 340 340 342 343 344 344 343 343 343 342 341 342 344 343 339 337 338 338 338 338
42 41 38 38 36 33 31 28 26 28 27 25 26 27 24 21 20 15 12 9 3 357 354 353 351 350 349 347 346 346 346 346 347 347 345 344 341 339 337 335 334 333 332 333 334 334 335 336 337 338 338 337 336 335 335 336 337 338 339 339 339 339 339 339 340 340 340 341 342 343 345 344 343 344 345 344 343 341 341 344 345 341 339 339 338 339 339
42 41 39 39 37 33 31 29 27 28 28 27 28 27 24 23 23 21 18 14 9 3 0 360 358 357 355 354 353 352 351 351 350 348 346 343 341 339 337 336 335 334 334 335 335 335 336 336 337 337 336 336 335 335 336 337 339 339 340 340 339 339 339 340 340 341 341 341 342 342 344 344 344 346 346 344 343 342 340 342 345 343 340 339 338 338 339
42 41 39 39 37 33 31 29 28 28 28 29 28 25 24 25 25 24 22 18 16 13 10 9 7 4 2 360 357 356 354 352 350 348 346 344 342 340 338 337 336 336 335 335 335 336 336 336 336 336 336 335 335 336 338 339 340 340 340 340 339 339 340 340 340 342 342 341 341 342 345 346 345 346 347 346 343 342 340 341 343 343 341 339 338 339 340
41 39 38 38 36 33 30 28 28 27 27 28 27 25 25 25 25 24 23 21 20 18 15 14 11 7 5 3 0 358 355 352 350 348 347 345 344 342 340 340 339 337 336 336 336 336 336 336 337 336 336 335 336 337 339 340 340 341 340 340 339 339 339 340 340 341 341 341 342 345 347 348 346 345 346 346 344 342 341 340 342 342 341 340 340 339 340
38 36 35 35 34 31 29 28 27 26 26 27 26 25 25 25 25 25 25 23 21 19 16 15 12 9 7 4 1 359 356 354 352 351 350 349 347 345 344 343 340 338 337 337 337 337 337 338 337 336 335 336 337 338 339 340 340 341 340 339 339 338 338 340 340 341 341 342 344 347 348 347 346 346 345 345 344 343 341 340 341 342 343 342 341 341 341
34 31 31 31 30 29 27 25 25 25 24 25 25 23 22 23 23 23 23 22 21 18 16 15 13 10 8 5 3 1 359 358 357 356 355 354 351 349 347 344 342 340 339 338 338 338 339 338 337 336 336 337 338 338 339 340 340 340 340 339 338 337 338 340 340 341 342 343 344 347 349 347 346 347 345 344 343 343 342 342 342 342 343 343 342 342 342
25 26 25 25 24 25 24 22 22 23 23 25 25 21 18 19 20 20 20 20 18 15 14 14 12 10 9 7 6 5 4 3 2 0 358 357 354 352 349 346 343 341 339 339 339 339 339 338 337 337 337 338 339 339 339 340 340 340 339 338 337 338 339 340 341 342 344 344 344 347 350 348 346 347 346 344 343 344 344 344 343 342 341 342 343 342 342
8 15 18 17 16 18 19 18 18 20 20 22 22 19 16 16 16 16 16 15 13 12 12 12 11 10 9 9 8 7 6 5 3 2 0 358 356 353 350 347 344 342 340 340 340 339 339 339 339 339 338 338 339 338 339 340 340 339 338 337 337 338 339 340 342 343 345 346 346 348 350 349 346 347 347 346 345 344 344 344 344 342 341 341 342 343 343
347 0 5 8 8 10 12 13 13 15 16 16 17 15 13 12 12 11 11 9 8 9 9 9 8 8 8 8 8 7 6 4 3 1 0 359 357 354 351 348 346 343 342 341 340 340 341 341 340 339 339 339 339 338 339 339 339 338 338 337 337 338 339 341 344 346 346 347 347 348 350 349 348 348 348 347 346 345 344 344 343 342 341 340 342 343 343
325 339 348 356 359 0 3 6 6 7 9 10 11 11 10 8 7 6 5 4 5 6 6 5 5 5 6 6 6 6 5 4 2 0 360 359 357 355 352 350 347 345 343 342 342 342 342 342 340 340 339 339 338 338 339 339 338 337 337 337 338 339 340 342 345 347 347 347 347 347 349 349 348 348 347 346 345 344 344 344 343 343 342 341 341 342 343
304 316 328 339 345 348 353 356 358 360 2 3 4 5 4 2 1 0 359 0 2 3 1 1 2 2 3 4 3 3 3 2 1 360 359 358 357 356 354 351 348 346 344 344 343 343 343 342 341 340 339 338 338 337 338 338 337 337 337 337 338 339 340 342 344 346 346 346 346 347 348 347 346 346 347 346 345 345 344 344 344 344 343 342 341 341 342
289 296 308 321 329 335 341 346 350 353 354 355 356 357 356 355 355 355 356 357 358 357 356 357 358 359 0 0 0 1 1 0 359 359 358 357 357 356 354 352 349 347 345 345 345 344 343 342 341 339 338 338 337 337 337 337 337 337 337 338 339 339 340 341 343 344 344 345 346 347 347 347 346 346 346 346 345 346 345 344 344 344 344 343 342 341 341
280 282 291 304 314 322 330 336 342 345 346 347 348 348 347 348 351 352 354 354 353 352 352 353 354 355 357 357 357 358 359 358 358 357 356 356 355 355 355 353 351 349 347 346 345 344 343 342 340 339 338 337 337 337 337 337 337 337 338 338 338 339 340 341 343 343 343 344 345 346 347 346 345 345 345 344 345 346 345 344 344 344 344 344 344 343 342
276 276 281 290 302 312 320 327 333 337 339 340 340 340 341 345 348 349 350 350 349 349 349 349 350 352 353 353 354 355 356 356 356 356 355 354 353 353 353 353 352 350 348 347 346 345 343 342 340 339 338 337 337 337 337 337 337 337 337 337 338 340 341 341 342 342 342 342 343 344 345 345 345 345 345 345 345 346 346 346 345 345 345 345 345 344 343
275 273 276 283 293 303 311 319 326 330 332 333 334 335 339 343 345 347 347 347 345 346 346 346 347 348 350 350 352 353 353 354 354 354 353 352 351 351 352 352 352 350 348 347 346 345 343 342 340 339 338 337 337 337 337 337 337 337 337 337 338 339 340 340 340 341 342 342 343 344 344 346 346 346 346 346 346 347 347 346 346 346 346 346 346 344 344
276 274 275 279 287 296 305 313 318 322 325 327 329 333 337 340 342 344 345 344 343 343 342 342 344 346 347 348 349 350 351 352 352 352 351 351 349 349 350 351 351 351 349 347 346 345 343 342 341 340 339 337 337 338 337 337 337 337 336 337 339 339 339 340 341 342 343 344 344 344 345 346 347 347 347 346 346 347 347 347 347 347 346 346 346 344 344
277 276 276 278 284 292 300 307 312 316 320 323 327 331 336 338 340 342 342 341 340 339 339 340 342 343 345 346 347 348 349 350 350 349 349 349 348 347 348 350 351 350 349 347 346 344 343 342 341 340 339 338 338 338 337 337 337 337 337 338 340 340 340 340 341 343 344 344 344 344 345 346 346 347 347 347 346 347 347 347 347 347 347 346 346 345 344
277 276 277 278 282 288 295 302 307 312 316 321 327 331 334 336 337 339 339 337 336 336 337 338 340 341 343 344 344 346 347 348 348 348 347 347 346 346 347 348 350 350 348 347 346 344 343 342 341 340 339 338 338 337 337 337 337 337 338 339 340 339 340 340 341 343 343 343 344 344 345 345 346 347 347 346 346 347 347 347 348 348 347 347 345 344 345
279 279 279 279 281 286 292 298 304 309 315 321 326 329 331 332 335 336 335 334 333 334 335 336 338 340 341 342 343 344 345 346 346 346 346 345 345 346 346 347 349 349 348 347 345 344 343 342 341 340 339 338 338 337 337 338 337 337 338 339 339 339 340 340 342 342 342 342 343 344 344 344 345 346 347 347 346 347 347 348 348 348 347 347 346 345 345
282 283 283 282 283 286 291 297 303 309 315 319 323 326 328 330 331 332 332 331 331 332 332 334 337 338 339 340 341 342 343 344 345 344 344 344 344 345 345 346 347 348 347 346 345 344 342 342 341 340 339 338 338 338 338 338 338 338 338 339 339 339 339 340 341 342 342 341 342 343 344 345 346 346 347 347 347 347 347 347 348 348 348 347 347 346 346
284 286 286 285 284 286 290 295 301 307 312 316 320 323 325 327 328 328 328 329 329 329 331 333 335 336 337 338 340 341 341 342 343 343 343 343 343 344 344 344 345 346 346 345 345 343 342 341 341 340 339 338 338 337 338 338 338 338 338 339 339 339 340 340 341 342 342 342 343 344 345 346 346 346 347 347 346 346 346 347 347 348 348 347 347 346 346
286 287 287 286 285 286 289 293 299 304 309 313 317 320 322 324 325 325 326 326 327 328 330 332 333 334 335 337 338 339 340 341 341 341 342 342 342 343 343 343 343 344 344 344 344 343 341 341 341 340 339 338 338 338 338 338 338 338 338 339 339 339 340 341 341 341 342 343 343 343 343 344 345 345 346 346 345 345 346 346 347 347 348 348 348 347 347
287 288 287 287 286 287 289 293 298 303 307 311 315 317 319 321 322 323 324 325 325 327 329 331 332 334 335 336 337 338 339 340 340 340 341 341 341 342 342 341 341 342 343 343 343 342 342 341 341 340 339 338 338 338 338 338 338 338 338 339 338 339 339 340 340 340 341 342 342 342 342 343 344 344 345 345 345 344 345 345 346 347 348 348 349 348 348
287 287 288 288 289 289 292 295 298 303 306 310 313 316 318 319 320 321 322 323 325 327 328 330 331 333 334 335 336 337 338 338 339 339 339 339 340 340 340 340 340 340 341 342 342 342 341 341 340 340 339 338 338 338 338 338 338 338 339 339 339 339 339 339 340 340 341 341 341 341 341 342 342 343 344 345 345 345 345 346 347 348 349 349 349 349 348
287 288 289 291 292 293 295 298 301 304 307 310 312 314 316 317 318 320 321 322 324 326 328 330 331 333 333 334 335 336 337 337 338 338 338 338 339 339 339 339 339 339 340 341 341 341 341 341 340 340 339 338 338 339 339 338 338 338 339 339 339 339 339 339 339 340 340 340 340 340 340 341 342 343 345 346 346 346 346 347 348 349 349 349 349 348 348
287 290 292 294 295 296 298 300 303 305 307 310 311 313 314 316 317 318 320 322 324 327 328 330 331 332 332 333 334 335 336 336 337 337 337 337 338 338 338 338 338 338 338 339 339 340 341 341 341 340 339 339 339 339 339 339 338 338 339 339 339 339 339 339 339 340 340 340 340 341 341 342 343 345 346 347 347 347 347 347 348 349 349 349 348 347 347
290 292 294 295 296 298 300 302 305 307 308 309 311 312 313 315 316 318 320 322 325 327 329 330 330 331 331 332 333 334 335 335 336 336 336 336 337 337 337 337 337 337 337 338 339 340 341 341 341 340 340 339 339 339 339 339 338 339 339 339 339 339 339 339 340 340 340 341 342 343 343 344 344 345 346 346 347 347 347 348 348 349 348 348 348 347 347
293 294 295 296 298 300 303 305 307 307 308 309 310 311 313 315 316 318 321 323 325 327 329 329 329 330 331 332 332 333 334 334 335 335 335 335 336 336 336 336 336 336 336 337 338 339 340 341 341 341 340 340 339 340 340 339 339 339 339 339 339 339 339 339 340 340 340 341 342 343 344 344 344 344 345 345 346 346 346 347 349 349 349 348 347 347 347
291 293 295 298 300 303 305 306 306 306 306 307 309 311 313 315 317 319 321 323 325 327 328 328 329 329 330 331 332 332 333 334 334 334 334 335 335 335 335 335 335 335 336 337 337 338 340 341 341 341 340 340 340 340 340 340 339 339 339 338 338 339 339 340 340 340 340 341 342 342 343 343 343 344 344 345 345 345 346 347 348 349 349 348 347 346 347
288 291 295 298 300 302 303 304 304 304 305 307 310 311 313 315 317 319 321 323 325 326 327 328 328 328 329 330 331 331 332 333 333 333 333 334 334 334 335 335 335 335 336 336 337 338 340 341 341 341 340 340 339 340 340 340 339 339 338 338 338 339 339 339 339 339 340 341 341 342 342 343 343 343 344 344 344 345 345 346 347 348 349 348 347 346 346
285 290 293 296 298 299 300 301 302 303 305 307 310 311 313 315 318 319 321 323 324 325 326 327 327 328 329 330 330 331 331 332 333 333 333 333 334 334 334 334 334 335 336 336 337 338 340 341 341 340 340 339 339 340 340 339 339 339 338 338 338 338 339 339 339 339 340 341 341 341 342 342 342 343 343 343 343 344 344 345 346 348 348 348 347 346 346
282 287 290 292 294 295 298 299 301 303 305 308 309 311 313 315 317 318 320 321 323 324 325 326 327 328 328 329 330 330 331 332 332 332 332 333 333 333 334 334 334 335 336 336 337 338 339 340 340 340 340 339 339 339 339 339 338 338 338 337 338 338 339 339 339 339 340 340 340 340 341 341 341 342 342 342 342 343 344 345 346 347 348 348 348 347 346
280 283 286 288 290 293 295 298 300 302 305 307 309 311 313 314 316 317 319 320 322 323 324 325 326 328 328 329 329 330 331 332 332 332 332 332 333 333 334 334 334 335 336 336 337 338 339 340 340 340 339 339 339 339 339 338 338 338 338 337 337 338 338 338 338 339 339 339 340 340 340 341 341 342 342 342 342 343 344 344 345 346 348 348 347 347 347
279 281 284 286 288 291 294 297 299 302 304 306 308 310 312 313 314 316 317 319 321 323 324 325 326 328 328 329 329 330 331 332 332 331 331 332 333 333 334 334 334 334 336 337 337 338 339 339 339 339 339 339 338 339 338 338 337 337 337 337 337 337 338 338 338 338 339 339 339 340 340 340 341 341 342 342 342 342 343 344 345 346 347 348 347 347 347
279 281 283 285 288 291 294 296 299 302 303 305 307 309 311 312 313 315 316 318 321 323 324 325 326 328 328 328 329 329 331 332 332 331 331 331 332 333 334 334 334 335 336 336 337 337 338 339 339 339 339 338 338 338 338 337 337 337 337 337 337 337 337 338 338 338 338 339 339 339 339 340 341 341 341 342 342 342 343 344 345 345 346 347 347 346 346
280 281 283 286 289 292 295 297 300 301 303 305 307 308 310 311 312 314 316 319 321 323 324 325 327 328 328 328 329 329 331 332 332 331 331 331 332 333 333 334 334 335 335 336 337 337 338 339 339 339 338 338 338 338 338 337 337 337 337 337 337 337 337 338 338 338 338 338 338 339 339 340 340 341 341 342 342 342 342 343 345 345 345 346 346 346 345
283 284 287 289 292 295 297 299 300 302 303 305 307 308 309 311 313 314 317 320 322 323 324 326 327 327 328 328 329 329 331 332 332 331 331 331 332 333 334 334 334 335 335 336 336 337 337 338 339 338 338 337 338 338 337 337 336 336 336 336 336 337 337 337 337 337 338 338 338 339 339 339 340 340 341 341 342 342 343 344 344 345 345 345 345 345 345
287 289 292 295 297 298 299 300 301 303 304 305 307 309 311 312 314 316 318 320 322 323 324 325 326 327 328 328 328 329 331 332 332 331 331 331 332 333 333 334 334 335 335 335 336 336 337 338 338 338 337 337 337 337 337 336 336 336 336 336 336 337 337 337 337 337 337 338 338 338 339 339 340 340 341 341 342 342 343 343 344 344 344 345 345 345 344
293 295 297 299 299 300 301 302 302 304 305 307 309 311 312 314 315 317 319 321 322 323 324 325 326 327 327 328 329 330 331 331 331 331 331 332 332 333 333 333 334 334 335 335 336 336 337 337 338 338 337 337 337 337 337 336 336 335 336 336 336 336 336 337 337 337 337 337 338 338 338 339 339 340 340 341 341 341 342 343 343 344 344 344 344 345 344
298 299 300 300 300 301 302 303 304 306 307 309 311 313 314 315 316 317 319 321 322 324 325 326 327 327 327 328 329 330 331 331 330 331 331 332 332 332 333 333 334 334 334 335 335 336 336 337 337 337 337 337 337 337 337 336 335 335 336 336 336 336 336 336 336 336 337 337 337 338 338 338 339 339 340 340 340 340 341 342 343 344 344 344 344 344 344
Height
5837 5836 5836 5835 5835 5834 5833 5833 5833 5832 5832 5832 5832 5831 5829 5829 5828 5828 5827 5826 5825 5824 5823 5822 5823 5822 5821 5820 5819 5818 5816 5815 5813 5811 5809 5807 5804 5802 5799 5796 5794 5790 5787 5784 5781 5777 5773 5770 5766 5763 5760 5756 5753 5749 5746 5742 5739 5735 5730 5726 5723 5718 5715 5712 5711 5709 5706 5702 5697 5690 5682 5674 5668 5662 5654 5648 5640 5632 5626 5616 5608 5604 5598 5589 5578 5568 5567
5838 5838 5837 5836 5836 5835 5835 5834 5834 5834 5834 5834 5833 5832 5831 5830 5829 5828 5828 5827 5827 5825 5824 5824 5824 5823 5822 5821 5820 5818 5817 5815 5813 5811 5808 5806 5803 5801 5798 5795 5792 5789 5785 5782 5779 5775 5771 5767 5764 5761 5757 5754 5751 5747 5744 5740 5736 5732 5728 5724 5719 5715 5710 5706 5703 5700 5697 5695 5691 5686 5679 5670 5662 5655 5648 5643 5637 5630 5624 5616 5607 5601 5596 5587 5572 5560 5558
5839 5839 5838 5838 5837 5836 5836 5836 5836 5835 5835 5835 5834 5833 5832 5831 5830 5829 5829 5829 5828 5826 5826 5826 5825 5824 5823 5821 5820 5818 5817 5814 5813 5810 5808 5805 5802 5799 5796 5793 5790 5787 5783 5779 5776 5772 5769 5765 5762 5759 5755 5752 5749 5746 5742 5738 5734 5730 5726 5722 5718 5713 5708 5702 5697 5691 5683 5679 5675 5671 5667 5664 5659 5652 5645 5639 5634 5627 5619 5610 5601 5593 5589 5585 5570 5550 5544
5841 5840 5839 5839 5838 5838 5838 5837 5837 5837 5836 5835 5835 5834 5833 5832 5831 5830 5830 5829 5828 5827 5827 5826 5825 5824 5823 5822 5820 5818 5816 5814 5812 5809 5807 5804 5801 5798 5795 5791 5788 5784 5780 5777 5773 5770 5767 5763 5760 5757 5754 5750 5747 5744 5740 5736 5733 5729 5725 5721 5717 5712 5707 5702 5697 5691 5683 5677 5673 5667 5662 5659 5655 5650 5643 5636 5628 5620 5611 5602 5594 5583 5575 5574 5566 5544 5529
5842 5841 5841 5840 5840 5839 5839 5839 5838 5838 5837 5836 5835 5835 5834 5832 5832 5831 5830 5830 5829 5828 5828 5827 5826 5824 5823 5822 5820 5818 5816 5814 5811 5809 5806 5803 5800 5796 5793 5789 5786 5782 5778 5775 5771 5768 5764 5761 5758 5755 5752 5749 5745 5742 5738 5734 5731 5727 5723 5719 5715 5711 5707 5702 5697 5691 5684 5677 5673 5668 5661 5656 5651 5646 5639 5632 5623 5615 5605 5595 5587 5577 5564 5557 5553 5540 5521
5843 5843 5842 5842 5841 5841 5840 5840 5839 5839 5838 5837 5836 5835 5834 5833 5832 5831 5831 5830 5830 5829 5828 5827 5826 5825 5823 5821 5819 5817 5815 5813 5810 5808 5805 5802 5798 5794 5791 5787 5784 5780 5777 5773 5770 5766 5763 5760 5756 5753 5750 5747 5743 5740 5736 5733 5729 5725 5721 5717 5713 5709 5705 5701 5696 5691 5683 5676 5671 5666 5659 5653 5647 5641 5635 5628 5618 5608 5599 5590 5580 5572 5560 5547 5538 5529 5515
5845 5844 5843 5843 5842 5842 5842 5841 5841 5840 5839 5838 5837 5836 5834 5833 5832 5832 5831 5831 5830 5829 5828 5827 5826 5825 5823 5821 5819 5817 5814 5812 5809 5806 5803 5800 5796 5792 5789 5785 5781 5778 5775 5771 5768 5765 5762 5759 5755 5752 5748 5745 5741 5738 5734 5731 5727 5723 5719 5715 5711 5707 5703 5698 5694 5690 5682 5675 5668 5662 5656 5649 5643 5637 5631 5622 5613 5602 5593 5584 5575 5567 5557 5544 5531 5522 5513
5846 5845 5845 5844 5844 5843 5843 5842 5841 5841 5840 5839 5837 5836 5835 5834 5833 5832 5832 5831 5831 5830 5828 5827 5826 5824 5822 5820 5818 5816 5813 5811 5808 5805 5801 5798 5794 5790 5787 5783 5780 5776 5772 5769 5766 5762 5759 5756 5753 5750 5747 5743 5740 5736 5732 5728 5724 5720 5717 5713 5708 5704 5700 5695 5690 5687 5682 5674 5667 5660 5653 5646 5638 5632 5625 5618 5612 5604 5591 5578 5566 5555 5546 5538 5528 5517 5508
5847 5847 5846 5845 5845 5844 5844 5843 5842 5841 5840 5839 5838 5836 5835 5834 5833 5832 5832 5831 5831 5830 5828 5827 5825 5824 5822 5820 5817 5815 5812 5810 5806 5803 5800 5796 5792 5788 5785 5781 5777 5774 5770 5767 5763 5760 5757 5754 5751 5748 5745 5741 5738 5734 5730 5726 5722 5718 5714 5709 5705 5700 5696 5691 5686 5682 5677 5672 5665 5658 5650 5643 5635 5627 5621 5614 5607 5599 5586 5571 5559 5547 5534 5525 5517 5506 5494
5848 5848 5847 5847 5846 5845 5845 5844 5843 5842 5841 5839 5838 5837 5836 5834 5833 5833 5832 5832 5831 5829 5828 5827 5825 5823 5821 5819 5816 5814 5811 5808 5805 5801 5798 5794 5790 5787 5783 5779 5776 5772 5768 5765 5762 5758 5755 5752 5749 5746 5742 5739 5736 5732 5728 5724 5720 5716 5711 5705 5700 5695 5690 5685 5680 5675 5671 5666 5661 5654 5645 5639 5631 5622 5612 5604 5596 5591 5583 5569 5556 5545 5529 5515 5506 5498 5488
5849 5849 5848 5848 5847 5846 5846 5845 5844 5842 5841 5840 5839 5837 5836 5835 5834 5833 5832 5831 5830 5829 5828 5826 5824 5822 5820 5818 5815 5812 5810 5806 5803 5799 5796 5792 5789 5785 5781 5777 5774 5770 5767 5763 5760 5757 5754 5751 5747 5744 5741 5737 5734 5730 5726 5722 5718 5713 5707 5702 5696 5691 5685 5680 5674 5668 5663 5657 5654 5651 5642 5631 5622 5613 5604 5596 5585 5578 5572 5562 5549 5539 5530 5520 5510 5500 5488
5851 5850 5850 5849 5848 5847 5846 5845 5844 5843 5842 5841 5839 5838 5837 5836 5834 5833 5832 5831 5830 5829 5827 5825 5823 5821 5819 5816 5814 5811 5808 5804 5801 5797 5794 5790 5787 5783 5779 5776 5772 5768 5765 5762 5759 5756 5753 5750 5746 5743 5739 5736 5732 5728 5724 5720 5715 5709 5704 5699 5693 5688 5682 5677 5670 5664 5658 5650 5644 5639 5633 5624 5615 5607 5598 5589 5579 5570 5567 5565 5554 5537 5525 5516 5506 5494 5482
5852 5851 5851 5850 5849 5848 5848 5847 5846 5844 5843 5841 5839 5838 5837 5836 5834 5833 5832 5831 5829 5828 5826 5824 5822 5820 5817 5815 5812 5809 5806 5802 5799 5796 5792 5789 5785 5781 5778 5774 5770 5767 5764 5761 5758 5755 5752 5748 5745 5742 5738 5734 5730 5727 5722 5718 5712 5707 5701 5695 5690 5684 5678 5672 5666 5659 5653 5646 5637 5630 5624 5618 5611 5603 5591 5580 5572 5562 5552 5552 5548 5531 5513 5501 5491 5483 5475
5853 5852 5852 5851 5850 5850 5849 5848 5847 5845 5844 5842 5840 5839 5838 5836 5834 5833 5832 5830 5829 5827 5825 5823 5821 5818 5816 5813 5810 5807 5804 5801 5797 5794 5790 5787 5783 5779 5776 5772 5769 5766 5763 5759 5756 5753 5750 5747 5744 5741 5737 5733 5729 5725 5720 5715 5710 5704 5698 5692 5686 5680 5674 5668 5662 5655 5646 5639 5633 5629 5623 5613 5602 5595 5585 5570 5559 5549 5536 5531 5531 5521 5505 5492 5482 5475 5467
5854 5854 5853 5852 5852 5851 5850 5849 5848 5846 5844 5843 5841 5840 5838 5836 5835 5833 5832 5830 5828 5826 5824 5822 5820 5817 5814 5812 5808 5805 5802 5799 5796 5792 5789 5785 5781 5778 5774 5771 5768 5765 5762 5758 5755 5752 5749 5746 5743 5739 5735 5732 5728 5723 5718 5712 5707 5701 5694 5689 5683 5676 5670 5663 5657 5651 5643 5635 5627 5621 5613 5603 5590 5583 5579 5568 5555 5547 5538 5528 5524 5518 5505 5492 5480 5469 5459
5855 5855 5854 5853 5853 5852 5851 5850 5848 5846 5845 5843 5842 5840 5838 5837 5835 5834 5832 5830 5828 5826 5824 5821 5819 5816 5813 5810 5807 5804 5801 5797 5794 5790 5787 5783 5780 5777 5773 5770 5767 5764 5760 5757 5753 5750 5747 5743 5740 5736 5733 5729 5724 5720 5715 5710 5705 5699 5693 5687 5681 5674 5668 5662 5655 5649 5642 5633 5624 5612 5602 5595 5584 5574 5570 5565 5553 5542 5532 5525 5522 5518 5507 5491 5475 5462 5451
5856 5855 5855 5854 5853 5853 5852 5850 5849 5847 5845 5844 5842 5840 5839 5837 5836 5834 5832 5830 5828 5826 5823 5821 5818 5815 5812 5809 5806 5803 5799 5796 5792 5789 5786 5782 5779 5775 5772 5769 5766 5762 5759 5755 5751 5748 5745 5741 5737 5734 5730 5726 5721 5716 5712 5707 5702 5698 5692 5686 5680 5672 5666 5660 5653 5646 5639 5630 5624 5616 5604 5594 5584 5571 5562 5557 5551 5539 5526 5514 5507 5503 5497 5483 5466 5451 5441
5857 5856 5855 5855 5854 5853 5852 5851 5849 5848 5845 5844 5842 5841 5839 5838 5836 5834 5832 5830 5827 5825 5823 5820 5817 5814 5811 5808 5805 5802 5798 5795 5791 5788 5785 5781 5778 5774 5771 5767 5764 5760 5757 5753 5749 5746 5742 5739 5735 5731 5727 5723 5718 5713 5708 5703 5697 5693 5688 5682 5677 5670 5664 5657 5650 5643 5636 5627 5620 5615 5605 5593 5584 5574 5561 5551 5545 5539 5526 5508 5492 5482 5478 5471 5458 5443 5432
5857 5857 5856 5855 5855 5854 5852 5851 5849 5848 5846 5844 5843 5841 5840 5838 5836 5834 5832 5829 5827 5825 5823 5820 5816 5813 5810 5807 5804 5801 5797 5794 5791 5787 5784 5780 5777 5773 5770 5767 5763 5759 5755 5752 5748 5744 5741 5737 5733 5729 5724 5720 5715 5709 5704 5699 5693 5688 5682 5676 5670 5665 5658 5652 5645 5638 5632 5623 5614 5610 5604 5593 5582 5577 5566 5550 5535 5525 5514 5502 5487 5472 5462 5458 5452 5440 5427
5857 5857 5856 5856 5855 5854 5852 5851 5849 5848 5846 5845 5843 5842 5840 5838 5836 5833 5831 5829 5827 5825 5822 5819 5816 5813 5810 5807 5803 5800 5797 5793 5790 5786 5783 5780 5776 5772 5769 5765 5761 5757 5754 5750 5746 5742 5739 5735 5730 5726 5721 5716 5711 5706 5700 5695 5689 5684 5677 5670 5664 5657 5651 5646 5639 5631 5625 5617 5607 5599 5593 5584 5572 5563 5555 5541 5525 5511 5500 5491 5482 5469 5457 5450 5446 5438 5424
5857 5857 5856 5856 5855 5853 5852 5851 5850 5848 5847 5845 5844 5842 5839 5837 5835 5833 5831 5829 5827 5825 5821 5818 5816 5813 5810 5806 5803 5800 5796 5793 5789 5786 5782 5779 5775 5771 5767 5763 5760 5756 5752 5748 5744 5740 5736 5732 5727 5723 5718 5713 5707 5702 5696 5691 5685 5679 5673 5666 5660 5653 5647 5642 5634 5624 5614 5606 5599 5592 5585 5576 5563 5550 5539 5530 5520 5510 5500 5490 5481 5471 5457 5443 5436 5431 5421
5857 5857 5856 5856 5855 5853 5853 5851 5850 5849 5847 5845 5843 5841 5839 5837 5835 5833 5832 5830 5827 5824 5821 5818 5815 5812 5809 5806 5803 5800 5796 5792 5788 5785 5781 5777 5773 5769 5765 5761 5757 5753 5749 5746 5742 5738 5733 5729 5724 5719 5714 5709 5704 5698 5693 5687 5681 5675 5669 5663 5657 5651 5644 5638 5633 5625 5615 5603 5594 5588 5580 5572 5563 5554 5545 5537 5528 5518 5508 5497 5484 5471 5457 5441 5429 5424 5419
5857 5856 5856 5855 5854 5853 5852 5851 5850 5849 5847 5845 5843 5841 5839 5837 5835 5833 5831 5829 5826 5823 5821 5818 5815 5812 5808 5805 5802 5799 5795 5791 5787 5783 5779 5775 5771 5767 5763 5759 5754 5750 5747 5743 5739 5735 5730 5726 5721 5716 5711 5706 5701 5695 5690 5684 5679 5673 5667 5661 5655 5648 5641 5635 5630 5625 5621 5613 5602 5591 5583 5575 5568 5561 5552 5542 5531 5518 5506 5495 5485 5474 5463 5449 5435 5424 5417
5856 5856 5856 5855 5854 5853 5852 5851 5850 5848 5846 5845 5843 5841 5839 5837 5835 5833 5831 5828 5825 5823 5820 5817 5814 5810 5807 5804 5801 5797 5794 5790 5786 5782 5777 5773 5769 5765 5760 5756 5752 5748 5744 5740 5736 5732 5727 5722 5718 5713 5708 5703 5698 5692 5686 5681 5676 5670 5665 5659 5653 5647 5639 5633 5627 5620 5616 5613 5606 5596 5585 5574 5563 5554 5546 5538 5531 5522 5510 5498 5489 5479 5468 5456 5442 5427 5416
5855 5855 5855 5854 5853 5853 5852 5850 5849 5848 5846 5844 5842 5840 5839 5837 5834 5832 5830 5827 5825 5822 5819 5816 5813 5809 5806 5803 5800 5796 5792 5789 5784 5780 5775 5771 5767 5763 5758 5754 5750 5746 5742 5738 5734 5729 5724 5719 5714 5709 5704 5699 5694 5689 5683 5678 5673 5667 5662 5656 5650 5644 5635 5628 5622 5616 5608 5604 5602 5597 5590 5580 5569 5559 5550 5541 5534 5527 5517 5504 5493 5482 5471 5459 5446 5431 5416
5854 5854 5854 5853 5853 5852 5851 5850 5849 5847 5845 5844 5842 5840 5838 5836 5833 5831 5829 5827 5824 5821 5818 5815 5812 5809 5805 5802 5799 5795 5791 5787 5783 5778 5774 5769 5765 5761 5756 5752 5748 5744 5740 5735 5731 5726 5721 5716 5711 5706 5701 5696 5691 5686 5681 5675 5670 5664 5658 5652 5646 5639 5631 5624 5618 5613 5605 5599 5595 5593 5591 5586 5577 5566 5554 5541 5529 5520 5511 5500 5489 5478 5467 5455 5443 5430 5416
5853 5853 5852 5852 5852 5851 5850 5849 5848 5846 5845 5843 5841 5839 5837 5835 5833 5831 5828 5825 5822 5819 5816 5814 5811 5808 5805 5801 5798 5794 5790 5785 5781 5776 5772 5768 5763 5759 5754 5750 5745 5741 5737 5732 5728 5723 5718 5714 5708 5704 5699 5693 5688 5684 5678 5673 5667 5661 5655 5650 5643 5637 5630 5623 5616 5609 5600 5590 5582 5576 5570 5564 5557 5548 5539 5529 5519 5509 5500 5490 5479 5468 5455 5443 5430 5419 5410
5852 5852 5851 5851 5850 5850 5849 5848 5847 5845 5844 5842 5840 5839 5837 5834 5832 5829 5827 5824 5821 5818 5815 5813 5810 5806 5803 5800 5796 5792 5788 5783 5779 5775 5770 5766 5761 5757 5752 5747 5743 5738 5733 5729 5725 5720 5715 5711 5706 5701 5696 5690 5686 5681 5675 5669 5664 5657 5651 5645 5638 5631 5624 5618 5610 5602 5593 5582 5573 5564 5557 5551 5544 5536 5526 5516 5507 5498 5488 5477 5467 5456 5444 5432 5420 5408 5399
5850 5850 5850 5849 5849 5848 5848 5847 5845 5844 5843 5841 5840 5838 5836 5833 5831 5828 5825 5822 5820 5817 5814 5812 5808 5805 5802 5798 5794 5790 5786 5781 5777 5772 5768 5764 5759 5755 5750 5745 5740 5735 5731 5726 5721 5717 5712 5707 5703 5698 5693 5687 5682 5677 5672 5665 5659 5653 5647 5640 5633 5625 5617 5610 5604 5597 5590 5582 5572 5562 5553 5545 5538 5529 5518 5507 5497 5488 5480 5471 5461 5451 5439 5428 5418 5407 5395
5849 5849 5848 5848 5847 5847 5846 5845 5844 5842 5841 5840 5838 5836 5834 5832 5829 5827 5824 5821 5819 5816 5813 5810 5807 5803 5800 5796 5792 5788 5784 5779 5775 5770 5766 5761 5757 5752 5747 5742 5737 5733 5728 5723 5718 5714 5709 5704 5699 5694 5689 5684 5679 5674 5668 5662 5655 5649 5642 5636 5630 5623 5615 5607 5598 5590 5584 5579 5572 5563 5552 5542 5535 5529 5521 5510 5499 5489 5480 5470 5459 5449 5438 5427 5416 5406 5396
5848 5847 5847 5846 5846 5845 5845 5844 5842 5841 5840 5838 5836 5834 5832 5830 5827 5825 5822 5820 5817 5814 5811 5808 5805 5801 5798 5794 5790 5785 5781 5777 5773 5768 5764 5759 5754 5749 5745 5740 5735 5730 5725 5720 5715 5710 5706 5701 5696 5691 5686 5681 5676 5670 5665 5659 5653 5646 5639 5633 5626 5620 5614 5606 5597 5587 5578 5572 5568 5563 5555 5545 5534 5527 5519 5508 5496 5485 5476 5467 5457 5447 5437 5427 5415 5403 5392
5846 5846 5845 5845 5844 5844 5843 5842 5841 5839 5838 5836 5835 5833 5831 5828 5826 5823 5821 5818 5815 5812 5810 5807 5803 5799 5795 5791 5787 5783 5779 5775 5770 5766 5761 5757 5752 5747 5742 5737 5732 5727 5722 5717 5712 5707 5702 5698 5693 5688 5683 5677 5672 5667 5661 5656 5650 5643 5637 5630 5623 5616 5609 5603 5596 5588 5578 5568 5558 5552 5546 5537 5525 5514 5504 5495 5485 5476 5468 5460 5452 5443 5432 5423 5414 5405 5394
5845 5844 5844 5843 5843 5842 5842 5841 5839 5838 5837 5835 5833 5831 5829 5827 5824 5821 5819 5816 5813 5811 5808 5804 5801 5797 5793 5789 5785 5780 5776 5772 5767 5763 5759 5754 5749 5744 5739 5734 5729 5724 5718 5714 5709 5703 5699 5694 5690 5685 5680 5675 5669 5664 5658 5653 5646 5640 5634 5627 5620 5613 5605 5596 5589 5583 5575 5565 5552 5540 5532 5525 5517 5507 5499 5491 5483 5475 5466 5457 5448 5440 5431 5421 5412 5402 5393
5843 5843 5842 5841 5841 5840 5840 5839 5838 5836 5835 5833 5832 5829 5827 5825 5822 5819 5817 5814 5811 5808 5805 5802 5798 5795 5790 5786 5782 5778 5774 5770 5765 5760 5756 5751 5746 5741 5736 5731 5726 5721 5716 5711 5706 5701 5696 5691 5687 5682 5677 5672 5667 5661 5655 5649 5643 5637 5631 5624 5618 5611 5603 5595 5587 5580 5572 5565 5557 5547 5538 5529 5521 5512 5503 5493 5483 5475 5467 5459 5450 5440 5430 5419 5408 5397 5386
5842 5841 5840 5840 5839 5839 5838 5837 5836 5835 5833 5832 5830 5828 5825 5823 5820 5817 5814 5812 5809 5806 5803 5799 5796 5792 5788 5784 5780 5776 5771 5767 5763 5758 5754 5749 5744 5739 5734 5729 5724 5719 5714 5709 5704 5699 5693 5688 5683 5679 5674 5668 5663 5658 5652 5646 5640 5634 5627 5621 5615 5609 5603 5596 5590 5582 5574 5565 5558 5551 5543 5533 5525 5516 5506 5496 5486 5476 5467 5458 5449 5438 5426 5414 5403 5392 5380
5840 5839 5838 5838 5837 5837 5836 5835 5834 5833 5831 5829 5828 5825 5823 5820 5818 5815 5812 5809 5806 5803 5800 5797 5793 5789 5785 5781 5777 5773 5769 5765 5760 5756 5751 5747 5742 5737 5732 5727 5722 5717 5712 5707 5701 5696 5691 5686 5681 5676 5670 5665 5659 5654 5648 5642 5636 5630 5624 5617 5609 5602 5595 5589 5584 5578 5571 5563 5555 5549 5543 5536 5528 5520 5511 5500 5488 5475 5463 5451 5440 5429 5417 5405 5393 5382 5373
5838 5837 5837 5836 5836 5835 5834 5833 5832 5830 5829 5827 5825 5823 5820 5818 5815 5812 5809 5807 5804 5801 5798 5794 5790 5787 5783 5779 5775 5771 5766 5762 5758 5753 5749 5744 5739 5734 5729 5724 5719 5714 5709 5704 5699 5693 5688 5683 5678 5672 5667 5661 5655 5650 5644 5638 5631 5625 5619 5612 5605 5597 5590 5583 5576 5571 5567 5561 5554 5547 5540 5534 5525 5515 5505 5493 5479 5465 5453 5440 5428 5416 5405 5395 5384 5374 5366
5836 5835 5835 5834 5834 5833 5832 5831 5829 5828 5826 5824 5822 5820 5818 5815 5812 5810 5807 5804 5801 5799 5795 5792 5788 5784 5780 5776 5772 5768 5764 5759 5755 5751 5746 5741 5737 5732 5727 5722 5717 5712 5707 5701 5696 5691 5686 5680 5675 5669 5664 5658 5652 5646 5640 5634 5626 5619 5612 5605 5598 5592 5585 5577 5568 5561 5554 5547 5540 5531 5522 5513 5506 5497 5489 5480 5469 5457 5445 5433 5422 5411 5400 5391 5381 5370 5361
5834 5834 5833 5832 5832 5831 5829 5828 5827 5825 5823 5821 5819 5817 5815 5812 5809 5807 5805 5802 5799 5796 5793 5789 5786 5782 5778 5774 5769 5765 5761 5757 5752 5748 5743 5739 5734 5729 5724 5719 5714 5709 5704 5698 5693 5688 5683 5678 5672 5666 5660 5654 5648 5642 5636 5630 5622 5615 5608 5601 5593 5586 5578 5571 5562 5554 5544 5534 5524 5514 5503 5493 5486 5479 5473 5467 5460 5452 5442 5432 5420 5408 5397 5387 5378 5367 5358
5833 5832 5831 5830 5829 5828 5827 5826 5824 5822 5820 5818 5816 5814 5812 5809 5807 5804 5802 5799 5796 5794 5791 5787 5783 5779 5775 5771 5766 5762 5758 5754 5750 5745 5740 5736 5731 5725 5720 5715 5710 5705 5700 5695 5689 5684 5679 5674 5669 5663 5656 5650 5644 5638 5632 5626 5619 5611 5604 5597 5589 5582 5574 5565 5557 5549 5541 5531 5521 5511 5502 5491 5482 5474 5467 5459 5452 5445 5438 5429 5419 5406 5394 5383 5375 5366 5356
5831 5830 5829 5828 5827 5826 5825 5824 5822 5820 5818 5816 5814 5811 5809 5807 5804 5802 5799 5796 5794 5791 5788 5784 5780 5776 5772 5768 5763 5759 5755 5751 5747 5742 5737 5733 5728 5723 5717 5712 5707 5702 5697 5691 5686 5681 5676 5671 5665 5659 5653 5647 5640 5634 5628 5622 5615 5608 5600 5593 5586 5579 5572 5563 5555 5546 5538 5530 5521 5513 5504 5494 5484 5474 5466 5458 5449 5440 5431 5423 5416 5407 5395 5383 5372 5363 5355
5828 5827 5827 5826 5825 5824 5823 5821 5819 5817 5815 5813 5811 5809 5806 5804 5802 5799 5796 5793 5790 5787 5784 5781 5777 5773 5769 5765 5760 5756 5752 5748 5744 5739 5734 5730 5725 5720 5715 5709 5704 5698 5693 5688 5683 5677 5672 5667 5661 5655 5649 5643 5636 5631 5625 5618 5612 5605 5598 5591 5585 5577 5570 5563 5555 5547 5538 5528 5520 5511 5502 5492 5482 5471 5461 5454 5446 5438 5428 5420 5412 5405 5395 5384 5372 5361 5353
5826 5826 5825 5824 5823 5821 5820 5818 5816 5814 5812 5810 5808 5806 5803 5801 5798 5796 5793 5790 5788 5784 5781 5778 5774 5770 5766 5762 5757 5753 5749 5745 5741 5736 5731 5727 5722 5717 5712 5707 5701 5696 5690 5685 5679 5674 5669 5663 5657 5651 5645 5639 5633 5627 5621 5615 5608 5602 5595 5588 5581 5575 5568 5560 5553 5545 5536 5527 5518 5509 5500 5490 5481 5471 5461 5452 5444 5437 5429 5420 5411 5402 5393 5384 5373 5361 5351
5824 5823 5822 5821 5820 5819 5817 5815 5813 5811 5809 5807 5805 5803 5800 5798 5796 5793 5790 5788 5785 5782 5778 5774 5771 5766 5762 5758 5754 5750 5746 5742 5738 5733 5728 5723 5718 5714 5708 5703 5698 5692 5687 5682 5676 5671 5666 5660 5654 5648 5642 5636 5630 5624 5618 5611 5605 5599 5592 5584 5577 5571 5565 5557 5550 5543 5536 5528 5520 5511 5502 5492 5483 5473 5462 5452 5442 5434 5425 5416 5408 5400 5391 5381 5371 5361 5349
5822 5821 5820 5818 5817 5816 5814 5812 5810 5809 5807 5805 5802 5800 5798 5795 5793 5790 5787 5785 5782 5779 5775 5771 5767 5763 5759 5755 5751 5747 5743 5739 5735 5729 5724 5720 5715 5710 5705 5700 5694 5689 5684 5679 5673 5668 5662 5657 5651 5645 5639 5632 5626 5620 5614 5608 5601 5595 5589 5582 5575 5568 5562 5556 5548 5541 5534 5526 5517 5508 5500 5490 5480 5470 5460 5449 5438 5429 5420 5410 5401 5393 5386 5376 5366 5357 5347
5819 5818 5817 5815 5814 5813 5812 5810 5808 5806 5804 5802 5800 5797 5795 5792 5789 5786 5784 5781 5779 5775 5772 5768 5764 5761 5756 5752 5748 5744 5740 5736 5732 5726 5721 5716 5712 5707 5702 5697 5691 5686 5681 5676 5670 5664 5659 5654 5647 5641 5635 5629 5623 5617 5610 5604 5597 5591 5585 5578 5572 5565 5559 5552 5545 5537 5529 5522 5513 5505 5496 5487 5477 5467 5458 5446 5435 5425 5417 5407 5396 5386 5379 5370 5360 5351 5343
5816 5815 5814 5812 5811 5810 5809 5807 5805 5803 5801 5799 5797 5794 5792 5789 5786 5783 5781 5778 5776 5772 5769 5765 5761 5758 5754 5749 5745 5740 5737 5733 5728 5723 5717 5712 5708 5704 5699 5694 5688 5683 5677 5672 5666 5661 5655 5650 5644 5637 5631 5625 5619 5613 5606 5599 5593 5587 5580 5574 5567 5561 5555 5548 5540 5533 5524 5517 5509 5501 5492 5484 5474 5465 5455 5445 5433 5421 5411 5403 5393 5383 5374 5366 5357 5347 5339
5813 5812 5811 5810 5808 5808 5806 5805 5802 5800 5798 5796 5794 5791 5789 5786 5783 5780 5778 5775 5773 5769 5766 5762 5758 5754 5750 5746 5741 5737 5733 5730 5725 5719 5714 5709 5705 5701 5696 5691 5685 5680 5674 5668 5663 5657 5651 5646 5640 5633 5627 5621 5615 5609 5602 5595 5588 5582 5576 5569 5563 5558 5551 5544 5536 5529 5520 5512 5504 5495 5487 5479 5470 5461 5451 5442 5432 5420 5408 5398 5389 5379 5370 5362 5354 5344 5334
5810 5809 5808 5807 5806 5805 5803 5801 5799 5797 5795 5793 5790 5788 5785 5783 5780 5777 5774 5772 5770 5766 5762 5759 5755 5751 5747 5742 5738 5734 5730 5726 5721 5715 5710 5705 5701 5697 5692 5687 5681 5676 5671 5665 5659 5653 5648 5642 5636 5630 5623 5616 5610 5604 5598 5591 5583 5577 5570 5564 5558 5552 5546 5539 5532 5524 5515 5506 5497 5488 5480 5471 5463 5455 5446 5437 5428 5417 5405 5392 5382 5373 5365 5356 5347 5338 5329
5808 5807 5805 5804 5803 5802 5800 5798 5796 5794 5792 5790 5787 5785 5782 5779 5776 5774 5771 5769 5766 5763 5759 5755 5752 5748 5743 5739 5735 5731 5727 5722 5717 5711 5706 5702 5697 5693 5688 5683 5678 5672 5667 5661 5655 5649 5644 5638 5632 5626 5619 5613 5606 5600 5593 5586 5579 5572 5565 5559 5553 5546 5540 5534 5526 5518 5510 5501 5492 5483 5474 5465 5457 5448 5439 5430 5421 5413 5403 5392 5381 5371 5362 5353 5344 5335 5325
5805 5804 5803 5802 5800 5798 5796 5794 5792 5790 5789 5787 5784 5782 5779 5776 5773 5770 5768 5765 5763 5759 5755 5752 5748 5744 5740 5736 5732 5728 5724 5719 5714 5709 5703 5698 5694 5689 5684 5679 5674 5668 5662 5657 5651 5645 5639 5634 5629 5623 5616 5609 5602 5596 5589 5582 5575 5568 5561 5554 5547 5541 5534 5528 5521 5514 5506 5497 5489 5480 5471 5462 5453 5444 5435 5426 5417 5410 5403 5395 5385 5373 5362 5353 5344 5334 5323
5802 5801 5800 5798 5796 5795 5793 5791 5789 5788 5786 5784 5781 5779 5776 5772 5769 5767 5765 5762 5759 5756 5752 5748 5744 5740 5736 5732 5729 5725 5720 5715 5711 5706 5700 5695 5690 5685 5680 5675 5670 5665 5659 5653 5647 5641 5635 5629 5624 5618 5612 5605 5599 5592 5586 5578 5571 5563 5557 5550 5543 5536 5529 5522 5515 5508 5501 5493 5485 5476 5467 5459 5450 5441 5433 5424 5415 5406 5398 5391 5382 5371 5361 5351 5342 5333 5323